This demonstration page uses our WeatherBlox Daily Observations layout. Learn more.

Left ArrowRight Arrow

38.83388, -104.82136

Hourly Observations for August 29, 2022

Temp ( °F °C ) Dew Point ( °F °C ) Humidity (%) Winds ( mph kmh ) Pressure ( in mb ) Visibility ( mi km ) Precip ( " mm )
12:56 am 00:56 Mostly Clear 67 19.6 36 2 31 31 WSW 3 6 29.18 988 10 16 0.00 0.00
1:56 am 01:56 Clear 66 18.8 35 1.7 32 32 WNW 7 11 29.17 988 10 16 0.00 0.00
2:56 am 02:56 Mostly Clear 72 22 32 -0.1 23 23 NW 13 20 29.27 991 10 16 0.00 0.00
3:56 am 03:56 Mostly Cloudy 72 22 33 0.5 24 24 NW 17 28 29.32 993 10 16 0.00 0.00
4:56 am 04:56 Clear 71 21.9 33 0.4 24 24 NW 15 24 29.29 992 10 16 0.00 0.00
5:56 am 05:56 Clear 70 21.3 33 0.5 25 25 NW 17 28 29.29 992 10 16 0.00 0.00
6:56 am 06:56 Sunny 71 21.9 34 1 25 25 NW 17 28 29.33 993 10 16 0.00 0.00
7:56 am 07:56 Sunny 73 22.6 36 2.1 26 26 NNW 10 17 29.42 996 10 16 0.00 0.00
8:56 am 08:56 Sunny 74 23.4 37 2.8 26 26 N 13 20 29.50 999 10 16 0.00 0.00
9:56 am 09:56 Sunny 76 24.2 39 4 27 27 NNE 10 17 29.53 1000 9 14 0.00 0.00
10:56 am 10:56 Sunny 76 24.6 36 2.1 23 23 N 10 17 29.52 1000 10 16 0.00 0.00
11:56 am 11:56 Sunny 79 25.9 38 3.2 23 23 NE 7 11 29.59 1002 10 16 0.00 0.00
12:56 pm 12:56 Mostly Sunny 78 25.8 35 1.8 21 21 NW 8 13 29.64 1004 10 16 0.00 0.00
1:56 pm 13:56 Mostly Cloudy 77 25.2 40 4.3 26 26 E 7 11 29.58 1002 10 16 0.00 0.00
2:56 pm 14:56 Mostly Cloudy 80 26.8 40 4.5 24 24 E 6 9 29.63 1004 10 16 0.00 0.00
3:56 pm 15:56 Sunny 80 26.5 36 2.4 21 21 NNW 5 7 29.58 1002 10 16 0.00 0.00
4:56 pm 16:56 Sunny 79 25.9 37 2.5 22 22 Calm 29.56 1001 10 16 0.00 0.00
5:56 pm 17:56 Sunny 76 24.2 38 3.5 26 26 W 5 7 29.27 991 10 16 0.00 0.00
6:56 pm 18:56 Sunny 74 23.1 38 3.6 28 28 Calm 29.25 991 10 16 0.00 0.00
7:56 pm 19:56 Partly Cloudy 74 23.6 37 3 26 26 W 3 6 29.29 992 10 16 0.00 0.00
8:56 pm 20:56 Mostly Cloudy 70 21.1 46 7.7 42 42 S 3 6 29.30 992 10 16 0.00 0.00
9:56 pm 21:56 Partly Cloudy 68 20 48 9 49 49 SSW 6 9 29.30 992 10 16 0.00 0.00
10:56 pm 22:56 Cloudy 68 19.9 48 8.9 49 49 Calm 29.33 993 10 16 0.00 0.00
11:56 pm 23:56 Partly Cloudy 66 18.9 47 8.5 51 51 SSW 7 11 29.31 993 10 16 0.00 0.00

Powered by AerisWeather